Weather History for Ardmore Downtown, OK

Change the Weather History Date:

Tuesday, March 19, 2013

  Actual Average (KADM) Record (KADM)
Temperature  
Mean Temperature 50 °F -  
Max Temperature 60 °F 63 °F 84 °F (2007)
Min Temperature 39 °F 44 °F 35 °F (2013)
Degree Days  
Heating Degree Days 16    
Moisture  
Dew Point 32 °F    
Average Humidity 50    
Maximum Humidity 87    
Minimum Humidity 25    
Precipitation  
Precipitation 0.00 in - - ()
Sea Level Pressure  
Sea Level Pressure 30.08 in    
Wind  
Wind Speed 4 mph (East)    
Max Wind Speed 16 mph    
Max Gust Speed 22 mph    
Visibility 10 miles    
Events      
Averages and records for this station are not official NWS values.
T = Trace of Precipitation, MM = Missing Value Source: NWS Daily Summary

Daily Weather History Graph

Daily Weather History Graph

Search for Another Location

Airport:

Trip Planner

Search our weather history database for the weather conditions in past years. The results will help you decide how hot, cold, wet, or windy it might be!

Date:

Astronomy

Mar. 19, 2013 Rise Set
Actual Time 7:33 AM CDT 7:39 PM CDT
Civil Twilight 7:08 AM CDT 8:04 PM CDT
Nautical Twilight 6:39 AM CDT 8:33 PM CDT
Astronomical Twilight 6:09 AM CDT 9:03 PM CDT
Moon 12:38 PM CDT (3/19) 2:12 AM CDT (3/19)
Length of Visible Light 12h 56m
Length of Day
12h 06m
Waxing Crescent, 50% of the Moon is Illuminated
Mar 19
Waxing Crescent
Mar 19
First Quarter
Mar 27
Full
Apr 2
Last Quarter
Apr 10
New

Hourly Weather History & Observations

Time (CDT) Temp. Windchill Dew Point Humidity Pressure Visibility Wind Dir Wind Speed Gust Speed Precip Events Conditions
12:15 AM 46.4 °F - 35.6 °F 66% 30.02 in 10.0 mi Calm Calm - N/A   Clear
12:35 AM 44.6 °F - 35.6 °F 71% 30.02 in 10.0 mi Calm Calm - N/A   Clear
12:55 AM 44.6 °F - 35.6 °F 71% 30.00 in 10.0 mi Calm Calm - N/A   Clear
1:15 AM 44.6 °F - 35.6 °F 71% 30.00 in 10.0 mi Calm Calm - N/A   Clear
1:35 AM 46.4 °F - 35.6 °F 66% 29.99 in 10.0 mi Calm Calm - N/A   Clear
1:55 AM 44.6 °F - 33.8 °F 66% 30.00 in 10.0 mi Calm Calm - N/A   Clear
2:15 AM 44.6 °F - 33.8 °F 66% 30.00 in 10.0 mi Calm Calm - N/A   Clear
2:55 AM 44.6 °F - 33.8 °F 66% 30.01 in 10.0 mi Calm Calm - N/A   Clear
3:15 AM 44.6 °F - 33.8 °F 66% 30.01 in 10.0 mi Calm Calm - N/A   Clear
3:35 AM 44.6 °F - 33.8 °F 66% 30.02 in 10.0 mi Calm Calm - N/A   Clear
3:55 AM 42.8 °F 41.1 °F 33.8 °F 70% 30.02 in 10.0 mi East 3.5 mph - N/A   Clear
4:15 AM 42.8 °F 41.1 °F 33.8 °F 70% 30.02 in 10.0 mi NE 3.5 mph - N/A   Clear
4:35 AM 42.8 °F 40.1 °F 33.8 °F 70% 30.03 in 10.0 mi NE 4.6 mph - N/A   Clear
4:55 AM 42.8 °F - 33.8 °F 70% 30.02 in 10.0 mi Calm Calm - N/A   Clear
5:15 AM 41.0 °F 39.0 °F 33.8 °F 76% 30.02 in 10.0 mi ENE 3.5 mph - N/A   Clear
5:35 AM 41.0 °F 39.0 °F 35.6 °F 81% 30.03 in 10.0 mi ENE 3.5 mph - N/A   Clear
5:55 AM 41.0 °F 37.1 °F 35.6 °F 81% 30.02 in 10.0 mi ENE 5.8 mph - N/A   Clear
6:15 AM 41.0 °F 38.0 °F 33.8 °F 76% 30.03 in 10.0 mi NE 4.6 mph - N/A   Clear
6:35 AM 41.0 °F 38.0 °F 33.8 °F 76% 30.05 in 10.0 mi NE 4.6 mph - N/A   Clear
6:55 AM 39.2 °F 37.0 °F 33.8 °F 81% 30.06 in 10.0 mi NE 3.5 mph - N/A   Clear
7:15 AM 41.0 °F 39.0 °F 33.8 °F 76% 30.07 in 10.0 mi ENE 3.5 mph - N/A   Clear
7:35 AM 41.0 °F - 33.8 °F 76% 30.07 in 10.0 mi Calm Calm - N/A   Clear
7:55 AM 39.2 °F 37.0 °F 35.6 °F 87% 30.08 in 10.0 mi ENE 3.5 mph - N/A   Clear
8:15 AM 42.8 °F - 35.6 °F 76% 30.10 in 10.0 mi Calm Calm - N/A   Clear
8:35 AM 42.8 °F - 35.6 °F 76% 30.10 in 10.0 mi Calm Calm - N/A   Clear
8:55 AM 44.6 °F - 35.6 °F 71% 30.11 in 10.0 mi Calm Calm - N/A   Clear
9:15 AM 48.2 °F - 35.6 °F 62% 30.13 in 10.0 mi SE 8.1 mph - N/A   Clear
9:35 AM 50.0 °F - 35.6 °F 58% 30.13 in 10.0 mi ESE 8.1 mph - N/A   Clear
9:55 AM 50.0 °F - 35.6 °F 58% 30.13 in 10.0 mi ESE 6.9 mph - N/A   Clear
10:15 AM 51.8 °F - 35.6 °F 54% 30.13 in 10.0 mi ESE 6.9 mph - N/A   Clear
10:35 AM 53.6 °F - 33.8 °F 47% 30.14 in 10.0 mi SE 8.1 mph 16.1 mph N/A   Clear
10:55 AM 53.6 °F - 33.8 °F 47% 30.14 in 10.0 mi SE 12.7 mph 17.3 mph N/A   Clear
11:15 AM 55.4 °F - 30.2 °F 38% 30.12 in 10.0 mi SE 12.7 mph 19.6 mph N/A   Clear
11:35 AM 57.2 °F - 30.2 °F 36% 30.12 in 10.0 mi ESE 13.8 mph 19.6 mph N/A   Clear
11:55 AM 57.2 °F - 26.6 °F 31% 30.12 in 10.0 mi ESE 15.0 mph 18.4 mph N/A   Clear
12:15 PM 59.0 °F - 23.0 °F 25% 30.12 in 10.0 mi ESE 16.1 mph 21.9 mph N/A   Clear
12:35 PM 59.0 °F - 23.0 °F 25% 30.11 in 10.0 mi SE 13.8 mph 19.6 mph N/A   Clear
12:55 PM 59.0 °F - 24.8 °F 27% 30.10 in 10.0 mi SE 11.5 mph 18.4 mph N/A   Clear
1:15 PM 59.0 °F - 26.6 °F 29% 30.09 in 10.0 mi ESE 9.2 mph - N/A   Clear
1:35 PM 59.0 °F - 26.6 °F 29% 30.08 in 10.0 mi ESE 10.4 mph - N/A   Clear
1:55 PM 59.0 °F - 28.4 °F 31% 30.07 in 10.0 mi ESE 10.4 mph 16.1 mph N/A   Clear
2:15 PM 59.0 °F - 28.4 °F 31% 30.06 in 10.0 mi East 10.4 mph - N/A   Clear
2:35 PM 59.0 °F - 30.2 °F 34% 30.06 in 10.0 mi ESE 9.2 mph - N/A   Clear
2:55 PM 59.0 °F - 30.2 °F 34% 30.06 in 10.0 mi SE 8.1 mph 16.1 mph N/A   Clear
3:15 PM 60.8 °F - 30.2 °F 31% 30.05 in 10.0 mi SE 8.1 mph - N/A   Clear
3:35 PM 59.0 °F - 30.2 °F 34% 30.04 in 10.0 mi SE 9.2 mph - N/A   Clear
3:55 PM 60.8 °F - 28.4 °F 29% 30.04 in 10.0 mi ESE 8.1 mph - N/A   Clear
4:15 PM 60.8 °F - 28.4 °F 29% 30.04 in 10.0 mi ESE 6.9 mph - N/A   Clear
4:35 PM 60.8 °F - 28.4 °F 29% 30.05 in 10.0 mi East 9.2 mph - N/A   Clear
4:55 PM 60.8 °F - 30.2 °F 31% 30.04 in 10.0 mi East 9.2 mph - N/A   Clear
5:15 PM 60.8 °F - 30.2 °F 31% 30.05 in 10.0 mi East 8.1 mph - N/A   Clear
5:35 PM 60.8 °F - 30.2 °F 31% 30.05 in 10.0 mi ENE 8.1 mph - N/A   Clear
5:55 PM 60.8 °F - 30.2 °F 31% 30.06 in 10.0 mi East 6.9 mph - N/A   Clear
6:15 PM 59.0 °F - 30.2 °F 34% 30.07 in 10.0 mi ENE 5.8 mph - N/A   Clear
6:35 PM 59.0 °F - 30.2 °F 34% 30.07 in 10.0 mi East 4.6 mph - N/A   Clear
6:55 PM 59.0 °F - 30.2 °F 34% 30.08 in 10.0 mi ENE 6.9 mph - N/A   Clear
7:15 PM 59.0 °F - 28.4 °F 31% 30.10 in 10.0 mi ENE 4.6 mph - N/A   Clear
7:35 PM 57.2 °F - 30.2 °F 36% 30.10 in 10.0 mi Calm Calm - N/A   Scattered Clouds
7:55 PM 55.4 °F - 30.2 °F 38% 30.11 in 10.0 mi Calm Calm - N/A   Scattered Clouds
8:15 PM 55.4 °F - 30.2 °F 38% 30.11 in 10.0 mi Calm Calm - N/A   Mostly Cloudy
8:35 PM 55.4 °F - 32.0 °F 41% 30.12 in 10.0 mi ENE 3.5 mph - N/A   Overcast
8:55 PM 55.4 °F - 32.0 °F 41% 30.12 in 10.0 mi Calm Calm - N/A   Mostly Cloudy
9:15 PM 55.4 °F - 30.2 °F 38% 30.13 in 10.0 mi Calm Calm - N/A   Clear
9:35 PM 53.6 °F - 32.0 °F 44% 30.13 in 10.0 mi NE 4.6 mph - N/A   Clear
9:55 PM 55.4 °F - 30.2 °F 38% 30.13 in 10.0 mi NE 6.9 mph - N/A   Clear
10:15 PM 55.4 °F - 30.2 °F 38% 30.13 in 10.0 mi NE 6.9 mph - N/A   Clear
10:35 PM 53.6 °F - 30.2 °F 41% 30.12 in 10.0 mi ENE 4.6 mph - N/A   Clear
10:55 PM 53.6 °F - 30.2 °F 41% 30.13 in 10.0 mi ENE 5.8 mph - N/A   Clear
11:15 PM 53.6 °F - 32.0 °F 44% 30.15 in 10.0 mi ENE 5.8 mph - N/A   Clear
11:35 PM 53.6 °F - 32.0 °F 44% 30.17 in 10.0 mi NE 5.8 mph - N/A   Clear
11:55 PM 53.6 °F - 33.8 °F 47% 30.18 in 10.0 mi ENE 4.6 mph - N/A   Clear